Flag Weather past 2 weeks in Darlington, England, United Kingdom

Now
46 °F

Passing clouds.


Feels Like: 44 °F
Forecast: 40 / 45 °F
Wind: 5 mph from Northeast

Location: Tees-Side

Current Time: Nov 26, 2014 at 1:01:50 PM

Latest Report: Nov 26, 2014 at 12:20 PM


Visibility: N/A

Pressure: 29.95 "Hg

Humidity: 87%

Dew point: 43 °F

Location of DarlingtonLocation

Historic Weather in Darlington — Graph

°F

Darlington temperature yesterday

Maximum temperature yesterday: 41 °F (at 12:50 PM)
Minimum temperature yesterday: 32 °F (at 8:50 AM)
Average temperature yesterday: 37 °F

Past Weeks' High & Low Weather Summary

 TemperatureHumidityPressure
High55 °F (Nov 18, 1:20 PM)100% (Nov 14, 5:20 PM)30.33 "Hg (Nov 14, 5:20 PM)
Low32 °F (Nov 25, 8:50 AM)71% (Nov 23, 2:20 PM)29.30 "Hg (Nov 12, 5:50 AM)
Average47 °F89%29.84 "Hg
* Reported Nov 11 11:20 AM — Nov 26 11:20 AM, Darlington, Weather by CustomWeather, © 2014

Note: Actual official high and low records may vary slightly from our data, if they occured in-between our weather recording intervals... More about our weather records

Advertising

Darlington weather history for previous 24 hours

 ConditionsComfort  
Time TempWeatherWind HumidityBarometerVisibility
11:20 AM
Nov 26
46 °FPassing clouds.7 mph87%29.95 "HgN/A
10:50 AM45 °FScattered clouds.5 mph93%29.98 "Hg6 mi
10:20 AM45 °FScattered clouds.3 mph93%29.98 "Hg4 mi
9:20 AM43 °FDrizzle. Fog.3 mph100%29.98 "Hg2 mi
8:50 AM43 °FFog.1 mph93%29.98 "Hg2 mi
8:20 AM43 °FLight rain. Fog.6 mph93%29.98 "Hg2 mi
7:50 AM43 °FLight rain. Partly cloudy.8 mph93%30.01 "Hg2 mi
7:20 AM43 °FLight rain. Fog.6 mph93%30.01 "Hg2 mi
6:50 AM41 °FLight rain. Fog.3 mph100%30.01 "Hg2 mi
6:20 AM41 °FLight rain. Fog.1 mph100%30.01 "Hg2 mi
5:50 AM41 °FLight rain. Partly cloudy.1 mph93%30.01 "Hg2 mi
9:50 PM
Nov 25
36 °FFog.1 mph100%30.18 "Hg1 mi
9:20 PM36 °FFog.3 mph100%30.18 "Hg1 mi
8:50 PM36 °FFog.3 mph100%30.18 "Hg1 mi
8:20 PM34 °FFog.No wind100%30.18 "Hg1 mi
7:50 PM36 °FFog.2 mph100%30.18 "Hg0 mi
7:20 PM34 °FFog.3 mph100%30.18 "Hg0 mi
6:50 PM34 °FFog.3 mph100%30.18 "Hg0 mi
6:20 PM36 °FFog.2 mph100%30.18 "Hg0 mi
5:50 PM36 °FFog.2 mph100%30.18 "Hg0 mi
5:20 PM36 °FFog.5 mph100%30.18 "Hg1 mi
4:50 PM36 °FFog.5 mph93%30.18 "Hg0 mi
4:20 PM37 °FFog.2 mph93%30.18 "Hg0 mi
3:50 PM39 °FHaze.2 mph93%30.18 "Hg2 mi
3:20 PM41 °FClear.2 mph87%30.21 "Hg4 mi
2:50 PM41 °FClear.2 mph87%30.21 "Hg4 mi
2:20 PM41 °FPassing clouds.5 mph87%30.21 "Hg4 mi
1:50 PM41 °FPassing clouds.5 mph87%30.21 "Hg4 mi
1:20 PM41 °FPassing clouds.5 mph87%30.24 "Hg4 mi
Weather by CustomWeather, © 2014

See weather overviewHow to use our weather pages